Time,TemperatureF,DewpointF,PressureIn,WindDirection,WindDirectionDegrees,WindSpeedMPH,WindSpeedGustMPH,Humidity,HourlyPrecipIn,Conditions,Clouds,dailyrainin,SolarRadiationWatts/m^2,SoftwareType,DateUTC
2013-01-15 00:12:00,30.0,19.0,30.26,NW,315,0.0,-999.0,64,-99.99,,,0.00,0,weatherlink.com 1.10,2013-01-15 05:12:00,
2013-01-15 00:27:00,29.8,19.0,30.25,WNW,301,1.0,-999.0,64,-99.99,,,0.00,0,weatherlink.com 1.10,2013-01-15 05:27:00,
2013-01-15 00:57:00,29.8,19.0,30.25,NW,318,6.0,-999.0,64,-99.99,,,0.00,0,weatherlink.com 1.10,2013-01-15 05:57:00,
2013-01-15 01:12:00,29.7,19.0,30.25,NW,305,2.0,-999.0,64,-99.99,,,0.00,0,weatherlink.com 1.10,2013-01-15 06:12:00,
2013-01-15 01:27:00,29.7,19.0,30.24,WNW,295,0.0,-999.0,64,-99.99,,,0.00,0,weatherlink.com 1.10,2013-01-15 06:27:00,
2013-01-15 01:42:00,29.7,19.0,30.23,WNW,295,0.0,-999.0,64,-99.99,,,0.00,0,weatherlink.com 1.10,2013-01-15 06:42:00,
2013-01-15 01:57:00,29.7,19.0,30.23,NW,306,0.0,-999.0,64,-99.99,,,0.00,0,weatherlink.com 1.10,2013-01-15 06:57:00,
2013-01-15 02:12:00,29.7,19.0,30.24,WNW,302,2.0,-999.0,64,-99.99,,,0.00,0,weatherlink.com 1.10,2013-01-15 07:12:00,
2013-01-15 02:27:00,29.7,19.0,30.23,WNW,302,0.0,-999.0,64,-99.99,,,0.00,0,weatherlink.com 1.10,2013-01-15 07:27:00,
2013-01-15 02:42:00,29.5,19.0,30.24,NW,319,5.0,-999.0,65,-99.99,,,0.00,0,weatherlink.com 1.10,2013-01-15 07:42:00,
2013-01-15 02:57:00,29.5,19.0,30.23,NW,319,0.0,-999.0,65,-99.99,,,0.00,0,weatherlink.com 1.10,2013-01-15 07:57:00,
2013-01-15 03:12:00,29.4,19.0,30.24,NW,306,3.0,-999.0,66,-99.99,,,0.00,0,weatherlink.com 1.10,2013-01-15 08:12:00,
2013-01-15 03:27:00,29.4,19.0,30.24,NW,313,3.0,-999.0,66,-99.99,,,0.00,0,weatherlink.com 1.10,2013-01-15 08:27:00,
2013-01-15 03:42:00,29.3,20.0,30.24,NW,309,0.0,-999.0,67,-99.99,,,0.00,0,weatherlink.com 1.10,2013-01-15 08:42:00,
2013-01-15 03:57:00,29.1,19.0,30.22,NW,313,3.0,-999.0,67,-99.99,,,0.00,0,weatherlink.com 1.10,2013-01-15 08:57:00,
2013-01-15 04:12:00,29.0,20.0,30.23,NW,323,3.0,-999.0,68,-99.99,,,0.00,0,weatherlink.com 1.10,2013-01-15 09:12:00,
2013-01-15 04:27:00,29.0,20.0,30.23,NW,309,3.0,-999.0,69,-99.99,,,0.00,0,weatherlink.com 1.10,2013-01-15 09:27:00,
2013-01-15 04:42:00,28.8,20.0,30.23,NW,322,2.0,-999.0,70,-99.99,,,0.00,0,weatherlink.com 1.10,2013-01-15 09:42:00,
2013-01-15 04:58:00,28.8,20.0,30.23,NW,305,0.0,-999.0,70,-99.99,,,0.00,0,weatherlink.com 1.10,2013-01-15 09:58:00,
2013-01-15 05:13:00,28.7,20.0,30.23,West,277,2.0,-999.0,71,-99.99,,,0.00,0,weatherlink.com 1.10,2013-01-15 10:13:00,
2013-01-15 05:28:00,28.7,20.0,30.23,NW,308,2.0,-999.0,71,-99.99,,,0.00,0,weatherlink.com 1.10,2013-01-15 10:28:00,
2013-01-15 05:43:00,28.7,20.0,30.23,WNW,301,1.0,-999.0,71,-99.99,,,0.00,0,weatherlink.com 1.10,2013-01-15 10:43:00,
2013-01-15 05:58:00,28.5,21.0,30.24,WNW,294,2.0,-999.0,72,-99.99,,,0.00,0,weatherlink.com 1.10,2013-01-15 10:58:00,
2013-01-15 06:28:00,28.5,21.0,30.24,NNW,332,1.0,-999.0,72,-99.99,,,0.00,0,weatherlink.com 1.10,2013-01-15 11:28:00,
2013-01-15 06:43:00,28.5,21.0,30.25,WNW,299,2.0,-999.0,73,-99.99,,,0.00,0,weatherlink.com 1.10,2013-01-15 11:43:00,
2013-01-15 06:58:00,28.4,21.0,30.25,NW,320,0.0,-999.0,73,-99.99,,,0.00,0,weatherlink.com 1.10,2013-01-15 11:58:00,
2013-01-15 07:13:00,28.4,21.0,30.25,NW,320,1.0,-999.0,73,-99.99,,,0.00,0,weatherlink.com 1.10,2013-01-15 12:13:00,
2013-01-15 07:28:00,28.4,21.0,30.26,NW,306,2.0,-999.0,73,-99.99,,,0.00,0,weatherlink.com 1.10,2013-01-15 12:28:00,
2013-01-15 07:43:00,28.4,21.0,30.26,NW,306,2.0,-999.0,73,-99.99,,,0.00,0,weatherlink.com 1.10,2013-01-15 12:43:00,
2013-01-15 07:58:00,28.4,21.0,30.27,WNW,295,2.0,-999.0,74,-99.99,,,0.00,7,weatherlink.com 1.10,2013-01-15 12:58:00,
2013-01-15 08:13:00,28.4,21.0,30.28,WNW,294,2.0,-999.0,74,-99.99,,,0.00,12,weatherlink.com 1.10,2013-01-15 13:13:00,
2013-01-15 08:28:00,28.4,21.0,30.29,WNW,294,2.0,-999.0,74,-99.99,,,0.00,23,weatherlink.com 1.10,2013-01-15 13:28:00,
2013-01-15 08:43:00,28.5,21.0,30.29,WNW,295,1.0,-999.0,74,-99.99,,,0.00,42,weatherlink.com 1.10,2013-01-15 13:43:00,
2013-01-15 08:58:00,28.7,21.0,30.30,NW,312,0.0,-999.0,73,-99.99,,,0.00,37,weatherlink.com 1.10,2013-01-15 13:58:00,
2013-01-15 09:13:00,28.8,21.0,30.30,NW,312,0.0,-999.0,73,-99.99,,,0.00,67,weatherlink.com 1.10,2013-01-15 14:13:00,
2013-01-15 09:28:00,29.0,21.0,30.30,NW,308,3.0,-999.0,72,-99.99,,,0.00,79,weatherlink.com 1.10,2013-01-15 14:28:00,
2013-01-15 09:43:00,29.0,21.0,30.30,NW,305,0.0,-999.0,72,-99.99,,,0.00,99,weatherlink.com 1.10,2013-01-15 14:43:00,
2013-01-15 09:58:00,29.4,21.0,30.31,NW,305,0.0,-999.0,72,-99.99,,,0.00,121,weatherlink.com 1.10,2013-01-15 14:58:00,
2013-01-15 10:13:00,29.7,21.0,30.31,NW,319,3.0,-999.0,71,-99.99,,,0.00,128,weatherlink.com 1.10,2013-01-15 15:13:00,
2013-01-15 10:28:00,29.8,21.0,30.30,NW,305,3.0,-999.0,70,-99.99,,,0.00,155,weatherlink.com 1.10,2013-01-15 15:28:00,
2013-01-15 10:43:00,30.0,21.0,30.30,West,277,2.0,-999.0,70,-99.99,,,0.00,151,weatherlink.com 1.10,2013-01-15 15:43:00,
2013-01-15 10:58:00,30.1,21.0,30.30,NW,316,5.0,-999.0,70,-99.99,,,0.00,106,weatherlink.com 1.10,2013-01-15 15:58:00,
2013-01-15 11:13:00,30.1,21.0,30.29,NW,313,0.0,-999.0,69,-99.99,,,0.00,144,weatherlink.com 1.10,2013-01-15 16:13:00,
2013-01-15 11:28:00,30.6,22.0,30.28,NW,322,3.0,-999.0,69,-99.99,,,0.00,164,weatherlink.com 1.10,2013-01-15 16:28:00,
2013-01-15 11:43:00,30.7,21.0,30.28,SW,232,0.0,-999.0,68,-99.99,,,0.00,194,weatherlink.com 1.10,2013-01-15 16:43:00,
2013-01-15 11:58:00,30.9,21.0,30.28,WNW,289,0.0,-999.0,67,-99.99,,,0.00,143,weatherlink.com 1.10,2013-01-15 16:58:00,
2013-01-15 12:13:00,31.0,21.0,30.27,WSW,250,5.0,-999.0,67,-99.99,,,0.00,179,weatherlink.com 1.10,2013-01-15 17:13:00,
2013-01-15 12:28:00,31.2,21.0,30.27,WNW,302,0.0,-999.0,66,-99.99,,,0.00,120,weatherlink.com 1.10,2013-01-15 17:28:00,
2013-01-15 12:43:00,31.0,20.0,30.27,NW,306,5.0,-999.0,65,-99.99,,,0.00,102,weatherlink.com 1.10,2013-01-15 17:43:00,
2013-01-15 12:58:00,30.7,20.0,30.27,NW,306,1.0,-999.0,65,-99.99,,,0.00,137,weatherlink.com 1.10,2013-01-15 17:58:00,
2013-01-15 13:13:00,30.9,21.0,30.26,WNW,295,3.0,-999.0,66,-99.99,,,0.00,120,weatherlink.com 1.10,2013-01-15 18:13:00,
2013-01-15 13:28:00,30.7,19.0,30.25,WNW,302,6.0,-999.0,63,-99.99,,,0.00,118,weatherlink.com 1.10,2013-01-15 18:28:00,
2013-01-15 13:43:00,30.9,20.0,30.24,WNW,296,2.0,-999.0,63,-99.99,,,0.00,114,weatherlink.com 1.10,2013-01-15 18:43:00,
2013-01-15 13:58:00,30.9,19.0,30.23,NW,305,2.0,-999.0,62,-99.99,,,0.00,106,weatherlink.com 1.10,2013-01-15 18:58:00,
2013-01-15 14:13:00,30.9,18.0,30.22,NNW,329,5.0,-999.0,59,-99.99,,,0.00,65,weatherlink.com 1.10,2013-01-15 19:13:00,
2013-01-15 14:28:00,30.7,18.0,30.23,NNW,329,3.0,-999.0,59,-99.99,,,0.00,70,weatherlink.com 1.10,2013-01-15 19:28:00,
2013-01-15 14:43:00,30.6,18.0,30.24,NW,313,3.0,-999.0,60,-99.99,,,0.00,90,weatherlink.com 1.10,2013-01-15 19:43:00,
2013-01-15 14:58:00,30.9,19.0,30.24,NW,313,2.0,-999.0,61,-99.99,,,0.00,58,weatherlink.com 1.10,2013-01-15 19:58:00,
2013-01-15 15:13:00,30.9,20.0,30.25,NW,320,6.0,-999.0,63,-99.99,,,0.00,37,weatherlink.com 1.10,2013-01-15 20:13:00,
2013-01-15 15:28:00,30.7,20.0,30.25,NW,305,1.0,-999.0,64,-99.99,,,0.00,21,weatherlink.com 1.10,2013-01-15 20:28:00,
2013-01-15 15:43:00,30.6,21.0,30.24,WNW,301,3.0,-999.0,67,-99.99,,,0.00,12,weatherlink.com 1.10,2013-01-15 20:43:00,
2013-01-15 15:58:00,30.3,21.0,30.25,NW,325,2.0,-999.0,69,-99.99,,,0.00,9,weatherlink.com 1.10,2013-01-15 20:58:00,
2013-01-15 16:13:00,30.1,21.0,30.26,NW,304,1.0,-999.0,70,-99.99,,,0.00,21,weatherlink.com 1.10,2013-01-15 21:13:00,
2013-01-15 16:28:00,30.0,21.0,30.25,NW,308,3.0,-999.0,70,-99.99,,,0.00,16,weatherlink.com 1.10,2013-01-15 21:28:00,
2013-01-15 16:43:00,29.8,21.0,30.24,NW,306,4.0,-999.0,70,-99.99,,,0.00,0,weatherlink.com 1.10,2013-01-15 21:43:00,
2013-01-15 16:58:00,29.8,21.0,30.26,NW,308,0.0,-999.0,70,-99.99,,,0.00,0,weatherlink.com 1.10,2013-01-15 21:58:00,
2013-01-15 17:13:00,29.7,21.0,30.25,NW,308,0.0,-999.0,70,-99.99,,,0.00,0,weatherlink.com 1.10,2013-01-15 22:13:00,
2013-01-15 17:28:00,29.5,20.0,30.25,NW,308,0.0,-999.0,69,-99.99,,,0.00,0,weatherlink.com 1.10,2013-01-15 22:28:00,
2013-01-15 17:43:00,29.5,20.0,30.25,NW,306,1.0,-999.0,69,-99.99,,,0.00,0,weatherlink.com 1.10,2013-01-15 22:43:00,
2013-01-15 17:58:00,29.4,20.0,30.25,NW,306,0.0,-999.0,69,-99.99,,,0.00,0,weatherlink.com 1.10,2013-01-15 22:58:00,
2013-01-15 18:28:00,29.4,20.0,30.25,NW,306,0.0,-999.0,69,-99.99,,,0.00,0,weatherlink.com 1.10,2013-01-15 23:28:00,
2013-01-15 18:43:00,29.3,20.0,30.25,NW,308,0.0,-999.0,69,-99.99,,,0.00,0,weatherlink.com 1.10,2013-01-15 23:43:00,
2013-01-15 18:58:00,29.1,20.0,30.24,NW,308,0.0,-999.0,70,-99.99,,,0.00,0,weatherlink.com 1.10,2013-01-15 23:58:00,
2013-01-15 19:14:00,29.0,20.0,30.25,NW,306,0.0,-999.0,70,-99.99,,,0.00,0,weatherlink.com 1.10,2013-01-16 00:14:00,
2013-01-15 19:28:00,28.8,20.0,30.24,NW,306,0.0,-999.0,71,-99.99,,,0.00,0,weatherlink.com 1.10,2013-01-16 00:28:00,
2013-01-15 19:43:00,28.7,21.0,30.24,NW,306,0.0,-999.0,72,-99.99,,,0.00,0,weatherlink.com 1.10,2013-01-16 00:43:00,
2013-01-15 19:58:00,28.5,21.0,30.22,NW,306,0.0,-999.0,73,-99.99,,,0.00,0,weatherlink.com 1.10,2013-01-16 00:58:00,
2013-01-15 20:13:00,28.5,21.0,30.23,NW,308,0.0,-999.0,74,-99.99,,,0.00,0,weatherlink.com 1.10,2013-01-16 01:13:00,
2013-01-15 20:29:00,28.4,21.0,30.22,NW,308,0.0,-999.0,75,-99.99,,,0.00,0,weatherlink.com 1.10,2013-01-16 01:29:00,
2013-01-15 20:44:00,28.2,21.0,30.22,NW,306,0.0,-999.0,75,-99.99,,,0.00,0,weatherlink.com 1.10,2013-01-16 01:44:00,
2013-01-15 20:59:00,27.9,21.0,30.21,NW,308,0.0,-999.0,75,-99.99,,,0.00,0,weatherlink.com 1.10,2013-01-16 01:59:00,
2013-01-15 21:14:00,28.1,21.0,30.20,NW,308,0.0,-999.0,76,-99.99,,,0.00,0,weatherlink.com 1.10,2013-01-16 02:14:00,
2013-01-15 21:29:00,27.9,21.0,30.20,NW,308,0.0,-999.0,76,-99.99,,,0.00,0,weatherlink.com 1.10,2013-01-16 02:29:00,
2013-01-15 21:44:00,27.9,21.0,30.20,NW,306,0.0,-999.0,76,-99.99,,,0.00,0,weatherlink.com 1.10,2013-01-16 02:44:00,
2013-01-15 21:59:00,28.1,22.0,30.20,NW,306,0.0,-999.0,78,-99.99,,,0.00,0,weatherlink.com 1.10,2013-01-16 02:59:00,
2013-01-15 22:14:00,27.9,22.0,30.19,NW,306,0.0,-999.0,77,-99.99,,,0.00,0,weatherlink.com 1.10,2013-01-16 03:14:00,
2013-01-15 22:29:00,27.8,22.0,30.19,NW,306,0.0,-999.0,78,-99.99,,,0.00,0,weatherlink.com 1.10,2013-01-16 03:29:00,
2013-01-15 22:44:00,27.8,22.0,30.19,NW,306,1.0,-999.0,78,-99.99,,,0.00,0,weatherlink.com 1.10,2013-01-16 03:44:00,
2013-01-15 22:59:00,27.6,22.0,30.17,NW,308,0.0,-999.0,78,-99.99,,,0.00,0,weatherlink.com 1.10,2013-01-16 03:59:00,
2013-01-15 23:14:00,27.8,22.0,30.17,NW,308,0.0,-999.0,78,-99.99,,,0.00,0,weatherlink.com 1.10,2013-01-16 04:14:00,
2013-01-15 23:29:00,27.9,22.0,30.17,NW,306,0.0,-999.0,78,-99.99,,,0.00,0,weatherlink.com 1.10,2013-01-16 04:29:00,
2013-01-15 23:44:00,28.1,22.0,30.16,NW,308,0.0,-999.0,78,-99.99,,,0.00,0,weatherlink.com 1.10,2013-01-16 04:44:00,
2013-01-15 23:59:00,27.9,22.0,30.16,NW,306,0.0,-999.0,78,-99.99,,,0.00,0,weatherlink.com 1.10,2013-01-16 04:59:00,